GFSFLT1_850_temp_108.txt.gz
Temp
22 22 22 21 20 20 18 17 16 14 13 12 10 11 10 11 11 11 10 10 10 10 11 12 12 12 11 12 11 10 10 11
22 21 22 20 19 19 18 16 15 14 13 12 11 10 10 10 10 10 10 10 10 10 10 11 12 12 11 12 11 10 10 11
21 21 21 20 18 18 17 16 15 14 13 13 11 10 10 10 11 11 11 10 10 10 10 11 11 11 11 12 11 9 10 10
20 21 21 19 19 17 16 15 14 14 13 13 10 10 10 10 10 11 11 10 10 10 10 10 10 10 11 11 11 10 10 10
20 21 21 20 17 16 15 14 14 13 12 13 10 10 10 10 10 10 10 10 10 10 10 10 10 11 11 12 11 10 10 10
20 20 22 20 17 15 15 14 14 13 12 13 11 10 9 10 9 10 11 11 10 10 11 10 11 11 12 12 11 10 10 11
19 19 18 18 15 14 15 15 14 12 12 13 11 9 9 9 10 10 10 10 10 10 10 11 10 12 13 12 11 10 11 11
17 18 19 18 15 14 14 14 14 12 12 12 10 10 10 10 10 10 9 9 9 10 10 10 10 12 12 12 12 11 11 11
13 14 14 14 13 13 14 14 14 12 13 10 9 9 10 10 10 10 10 10 10 11 11 10 10 10 11 11 11 11 11 11
12 12 13 12 11 12 13 13 13 13 13 10 9 9 10 10 9 10 10 10 11 10 11 11 10 9 9 9 10 10 10 10
11 10 11 10 11 12 12 12 12 12 11 9 10 10 9 10 10 10 10 10 10 10 10 10 9 9 9 9 9 9 9 9
10 10 10 9 10 10 11 12 11 11 10 9 9 9 9 9 9 9 10 10 10 10 9 9 9 9 9 8 8 8 9 8
9 9 9 9 9 10 11 11 10 10 9 9 9 9 9 9 9 9 10 9 9 10 9 10 9 8 8 8 8 8 8 8
9 8 9 10 10 11 12 12 11 9 9 9 9 9 9 9 9 9 8 9 9 9 9 9 9 9 9 8 8 9 8 9
9 9 8 8 9 10 11 12 12 12 10 9 9 9 9 9 8 8 8 8 9 9 9 9 9 9 9 9 9 9 9 9
8 8 9 8 9 10 10 10 11 10 10 10 11 10 9 9 9 8 8 8 8 8 8 8 8 8 9 9 8 8 9 8
9 9 8 9 9 9 10 10 10 11 10 10 10 10 10 8 9 9 8 8 8 8 8 8 8 8 9 8 8 8 8 8
7 7 10 8 8 8 8 9 10 11 11 10 10 10 10 10 9 9 8 8 8 8 8 8 8 8 8 8 8 8 7 8
6 6 8 8 8 10 10 9 12 12 9 9 9 10 10 9 9 8 8 8 8 8 8 8 8 8 7 7 7 7 7 7

GFSFLT1_850_temp_114.txt.gz
Temp
22 21 21 20 21 20 16 15 17 17 17 17 16 15 14 13 11 11 11 11 11 11 11 11 11 11 10 11 11 10 11 11
22 21 20 21 20 20 16 14 14 17 17 16 16 15 15 12 11 11 11 11 11 10 11 10 11 10 10 11 11 10 10 10
21 21 19 20 20 19 15 14 13 15 16 16 16 16 15 13 11 11 11 11 11 11 11 10 11 10 10 10 10 10 10 10
20 20 19 17 19 18 15 14 13 15 14 15 14 12 13 12 11 11 10 10 11 11 10 10 11 11 10 11 10 10 10 10
19 20 20 18 17 16 16 13 12 12 12 14 13 12 12 11 11 11 11 11 11 10 10 10 10 11 10 11 10 10 10 10
18 18 19 18 15 15 17 14 12 12 12 12 12 12 11 11 10 10 11 11 11 11 10 10 10 10 10 10 10 9 10 10
17 16 16 16 13 15 16 14 12 14 13 11 12 12 13 11 10 11 11 11 11 10 11 10 10 10 10 10 10 9 10 10
17 16 16 15 12 12 13 12 12 14 14 14 13 13 13 10 10 10 10 10 10 10 10 10 10 9 10 10 10 9 9 10
15 14 14 13 11 10 10 12 11 13 13 14 13 13 10 9 10 10 10 10 10 10 10 10 10 9 10 10 10 9 9 10
14 13 12 11 10 10 10 11 11 12 11 10 10 12 9 10 10 10 10 10 10 10 9 9 9 9 9 10 10 9 9 9
11 11 10 10 9 9 9 10 10 11 10 10 10 10 9 9 10 10 10 10 10 9 8 8 9 9 9 8 9 9 9 9
11 9 9 9 9 9 9 9 9 10 9 11 9 10 9 10 10 10 10 10 9 9 8 9 9 9 9 9 9 10 9 10
11 9 9 9 9 9 9 9 9 10 10 10 10 9 9 10 10 10 10 10 10 9 8 8 8 9 10 10 10 10 11 10
11 10 8 8 9 8 8 9 9 9 9 9 9 9 9 9 9 10 10 9 9 9 9 9 9 9 10 10 11 11 10 10
11 9 7 9 8 8 8 9 9 9 9 9 9 9 8 9 9 10 10 9 9 9 9 9 9 10 9 10 10 10 9 9
9 8 5 5 8 7 7 8 9 9 9 9 9 9 9 10 9 9 10 9 9 9 9 9 9 9 9 10 10 9 8 8
8 7 6 6 6 8 7 6 7 8 9 9 9 9 9 9 9 9 9 9 9 9 9 9 9 9 9 9 9 9 9 8
7 5 4 5 6 6 7 7 6 6 8 9 9 9 9 9 9 9 9 9 9 9 9 9 9 8 8 9 8 8 8 9
5 4 4 4 6 6 7 7 6 5 7 8 8 9 9 9 8 8 8 9 9 9 9 9 9 9 9 8 8 8 8 8

GFSFLT1_850_temp_117.txt.gz
Temp
24 23 23 23 23 22 21 20 17 16 15 14 14 14 16 16 15 15 14 13 12 13 12 12 12 12 11 11 11 11 11 12
23 23 23 23 23 21 19 19 17 15 14 14 14 14 16 15 15 14 14 13 12 12 12 12 12 11 11 12 11 11 11 12
23 23 23 23 21 19 19 18 17 15 14 14 13 13 14 13 12 13 14 13 12 12 12 11 11 11 11 11 11 10 11 12
23 23 23 22 20 19 18 18 17 15 14 14 13 13 13 13 13 13 12 12 12 12 12 11 11 11 11 11 10 11 11 11
23 23 22 21 20 19 18 18 17 15 13 12 14 13 12 13 12 12 11 11 11 12 11 11 11 11 10 10 10 11 11 10
21 21 21 22 21 18 16 17 17 14 13 14 13 15 13 13 13 12 11 12 11 12 11 11 11 11 10 10 10 10 11 11
20 21 19 20 19 16 14 15 16 14 13 14 14 14 14 14 13 12 11 11 12 11 11 11 11 10 10 10 10 11 10 10
20 20 19 19 17 14 11 12 14 13 13 14 14 14 14 13 13 12 11 12 11 11 11 10 10 10 10 10 10 10 10 10
18 18 17 17 15 13 11 12 12 12 13 13 13 13 12 12 11 12 11 11 11 11 11 10 10 10 10 10 10 10 10 9
17 16 14 14 12 11 10 11 11 11 12 12 12 12 12 11 11 11 11 11 11 11 10 10 10 10 10 10 10 10 10 9
14 13 12 11 10 10 10 10 11 11 12 11 12 11 11 11 11 11 10 11 10 10 10 10 9 9 9 9 9 9 10 9
13 10 9 9 9 9 9 9 10 10 11 11 11 11 11 10 11 10 11 11 11 11 10 9 8 8 8 9 9 9 9 9
13 10 9 9 9 9 9 9 9 10 10 10 11 10 10 10 10 10 10 10 10 10 9 8 8 8 8 8 8 8 9 9
13 11 9 7 8 8 8 9 9 9 10 10 10 10 10 10 10 10 10 10 10 10 9 8 8 9 8 8 8 8 8 9
12 10 8 6 7 7 8 8 9 9 9 9 9 9 9 9 10 10 10 10 9 10 9 8 8 9 9 9 8 8 9 9
11 9 7 6 6 7 7 7 8 9 9 9 9 9 9 10 10 10 9 9 10 9 9 9 9 9 9 9 9 9 8 10
10 9 8 6 6 6 6 7 7 8 9 9 9 9 9 10 9 9 9 9 9 9 9 9 9 9 9 9 9 9 9 9
9 8 7 6 5 6 6 6 7 6 7 9 9 9 9 9 9 9 9 9 9 9 9 9 9 9 9 9 8 8 9 9
7 7 6 5 5 4 5 6 6 6 6 6 8 8 9 9 9 9 9 9 9 9 9 9 9 9 9 9 8 8 9 9

GFSFLT1_850_temp_120.txt.gz
Temp
24 24 24 25 25 24 23 22 21 19 17 16 16 15 14 14 15 16 16 15 14 14 13 12 12 12 12 13 12 12 11 11
25 24 24 24 24 24 23 21 20 19 17 16 15 15 14 14 14 15 16 15 14 14 13 12 12 12 12 12 12 12 11 11
24 24 24 24 24 23 23 22 20 19 18 16 15 15 14 14 13 14 15 14 14 14 13 12 11 11 11 12 12 11 11 10
24 23 23 23 23 23 22 20 20 19 17 15 15 14 13 13 14 13 14 14 13 13 12 12 12 11 12 11 11 11 11 11
23 23 23 23 23 22 22 20 19 18 16 15 14 14 14 13 13 13 13 13 14 12 12 12 12 11 11 11 11 11 11 11
23 23 23 22 22 21 21 20 18 18 17 15 14 13 13 13 13 13 13 11 11 12 12 12 12 12 11 11 11 10 10 11
22 22 22 22 21 21 20 18 18 17 17 15 14 14 13 13 13 12 12 11 11 11 12 12 12 12 11 11 10 10 10 11
21 21 21 20 19 17 16 16 17 17 17 15 14 14 14 14 14 13 12 11 11 11 12 12 11 11 11 10 10 10 10 10
19 18 18 18 17 15 15 15 15 15 15 14 14 14 14 15 14 13 12 12 11 11 11 11 11 11 11 10 10 10 10 10
17 15 14 14 14 13 12 11 12 13 13 13 14 13 14 13 13 13 12 12 11 11 11 11 11 11 10 11 10 10 10 10
14 12 11 11 10 10 10 10 11 11 12 13 13 12 13 12 12 12 12 12 11 11 11 11 10 10 10 10 10 10 10 10
12 11 9 9 9 9 10 10 10 10 11 12 12 12 12 12 11 11 11 11 11 11 11 10 11 10 10 9 9 9 9 10
11 10 8 9 9 9 9 9 9 10 10 11 12 11 11 11 11 11 10 10 10 11 10 10 10 9 9 9 9 9 9 9
11 9 7 8 8 8 9 9 9 9 10 10 11 11 10 10 10 10 10 10 10 10 10 9 9 9 9 8 8 8 9 9
11 9 7 6 7 8 8 8 9 9 9 10 10 10 10 10 10 10 10 10 9 10 9 9 8 8 9 8 8 8 8 9
10 9 7 6 7 7 7 7 8 8 9 9 9 9 9 9 10 10 10 10 9 9 9 9 8 8 9 9 8 8 8 9
10 9 8 6 6 6 6 7 8 8 8 9 9 9 9 10 10 10 10 10 10 10 9 9 8 8 8 9 8 8 8 9
9 8 7 6 5 5 6 6 6 7 6 7 8 9 9 9 9 9 9 9 10 10 10 9 8 8 9 9 8 8 8 9
7 7 6 5 5 4 3 5 5 5 6 7 6 8 9 10 9 9 9 9 9 10 10 10 9 9 9 9 8 8 9 8

GFSFLT1_850_temp_126.txt.gz
Temp
22 22 22 23 23 23 23 23 22 21 21 20 19 18 18 18 17 16 15 15 15 14 14 14 13 13 13 13 13 13 13 12
21 22 23 23 23 23 23 23 23 22 20 20 18 18 18 17 16 16 15 14 14 14 14 13 13 13 13 12 12 12 12 12
20 21 22 23 23 23 23 23 23 22 21 21 19 19 19 17 16 15 14 14 14 13 13 12 12 12 12 12 12 12 11 12
20 21 21 22 23 23 23 23 23 22 22 20 18 18 17 16 15 14 14 14 13 13 13 13 12 12 12 12 12 12 11 11
20 21 21 22 23 23 23 23 23 22 21 20 20 19 19 18 18 16 14 13 13 12 13 13 13 12 12 12 12 12 11 12
20 21 21 22 22 23 23 23 23 22 21 21 20 19 19 18 17 16 14 14 13 13 12 12 12 12 12 12 12 12 12 12
20 20 21 22 21 21 23 22 22 22 21 20 20 20 19 17 16 15 15 14 13 12 12 12 12 11 11 11 12 12 12 11
20 20 21 20 21 21 19 21 21 19 19 19 19 19 18 17 16 15 15 14 13 12 12 12 11 11 11 11 11 11 11 11
13 15 15 15 16 17 18 18 18 18 18 19 18 17 17 16 16 15 15 14 13 12 12 11 11 11 11 11 11 11 11 11
11 12 12 13 14 15 16 16 16 16 17 17 17 16 16 16 15 14 14 14 13 12 11 11 10 10 10 10 11 10 10 10
11 11 12 12 12 12 13 13 14 14 14 14 14 14 15 15 14 14 14 14 13 13 12 11 11 11 11 11 10 10 10 10
8 9 9 10 10 12 11 12 12 12 12 12 13 13 14 14 14 13 14 13 13 12 12 11 11 11 11 11 11 11 11 10
7 8 8 10 10 10 9 10 10 11 11 11 12 12 13 12 13 12 14 12 12 12 12 11 10 10 10 10 10 10 10 10
7 8 7 8 8 8 9 9 9 10 11 11 11 11 12 12 12 12 12 11 11 11 11 11 10 10 10 10 9 9 10 9
7 6 5 6 7 7 8 8 8 9 9 10 10 11 11 11 11 11 11 11 11 11 10 10 10 10 10 9 8 9 9 9
5 5 6 5 5 6 7 7 8 8 9 9 9 9 10 10 10 11 11 11 11 11 10 10 9 9 8 8 8 8 8 8
4 3 4 3 4 5 6 7 7 7 7 8 9 9 9 10 10 10 10 10 10 10 10 9 9 9 8 8 8 8 8 8
2 2 2 2 2 3 4 5 6 7 7 7 7 8 9 9 9 9 10 10 10 10 10 9 9 8 8 8 8 8 8 8
1 2 1 0 1 2 3 4 4 6 6 6 6 7 7 8 9 9 9 9 10 10 11 10 10 9 8 8 8 8 9 8

GFSFLT1_850_temp_132.txt.gz
Temp
14 16 15 16 17 19 20 20 21 22 20 20 18 18 18 19 19 19 18 18 18 17 16 16 15 14 14 13 13 13 13 13
12 13 16 16 17 18 19 20 20 21 19 19 18 18 19 19 19 18 18 18 17 17 16 16 15 14 14 13 13 13 13 12
11 12 13 14 16 17 18 19 20 21 20 21 20 19 19 19 18 18 17 18 17 16 16 16 15 15 14 13 13 13 12 12
11 11 11 13 15 17 18 19 20 20 20 19 18 17 17 17 17 18 18 17 17 16 16 15 15 15 15 14 13 13 13 12
11 11 11 12 15 17 18 19 19 20 20 19 19 20 18 20 20 19 18 17 17 16 15 14 14 14 14 14 13 12 12 12
11 12 12 13 15 17 19 19 19 19 19 19 19 19 21 21 19 18 18 18 17 15 15 14 13 13 13 13 13 12 12 12
12 12 13 13 17 17 17 19 19 19 17 18 17 17 20 19 18 17 18 18 18 15 14 14 14 13 13 12 13 12 12 12
9 10 12 14 17 17 18 19 20 19 18 16 16 16 18 20 20 18 17 18 18 18 14 14 14 13 13 13 13 12 12 12
8 8 9 13 14 17 18 20 20 19 17 15 14 15 16 16 17 18 18 20 19 18 15 14 14 13 13 13 12 12 12 12
6 6 7 8 9 12 16 19 18 18 16 14 14 14 15 14 15 16 17 19 18 17 15 15 14 13 13 12 12 12 12 11
5 5 5 7 9 10 11 15 16 17 16 15 14 14 14 16 16 17 18 17 17 16 15 14 14 13 12 12 12 12 11 11
4 4 3 5 9 10 10 13 12 12 13 15 16 16 15 15 16 17 17 17 16 15 15 13 13 12 12 11 11 11 11 11
1 2 1 3 7 8 9 10 11 13 14 15 14 15 16 14 14 15 15 15 15 14 14 14 13 12 12 11 11 11 10 10
-0 0 -1 -0 5 6 7 9 9 9 10 13 14 13 13 13 13 14 14 14 14 14 13 12 13 13 12 12 11 11 11 11
-1 -2 -2 -2 1 3 5 7 8 8 9 10 10 11 12 11 13 14 14 14 13 13 13 13 13 13 12 12 11 11 10 10
-2 -3 -3 -1 -0 2 3 3 3 5 7 8 9 9 10 11 11 11 11 11 12 13 13 12 12 11 11 11 11 10 10 10
-3 -3 -3 -2 -2 -1 0 1 2 4 5 6 7 8 9 9 9 10 10 11 10 11 11 12 11 11 10 10 9 9 9 9
-4 -4 -4 -3 -3 -3 -2 -0 1 2 3 5 5 6 7 8 9 9 10 10 10 10 11 10 10 10 10 9 9 9 8 8
-5 -5 -3 -3 -3 -4 -2 -1 -0 1 1 2 3 5 6 6 7 8 9 10 9 10 10 10 9 9 9 8 8 8 8 7

GFSFLT1_850_temp_135.txt.gz
Temp
11 12 11 12 14 16 17 17 17 17 18 18 18 19 18 19 19 19 19 19 18 17 16 16 15 15 14 14 14 14 13 14
11 11 12 12 13 14 16 17 17 17 17 17 18 18 18 18 19 19 19 19 18 17 17 16 15 15 14 14 13 13 13 13
9 10 11 12 11 13 14 15 17 17 17 18 19 19 18 19 19 19 18 18 18 18 17 16 16 15 14 14 14 13 13 13
9 9 10 12 11 12 13 14 16 17 17 16 16 14 14 15 18 19 19 18 18 18 17 17 16 15 15 14 13 13 13 12
8 8 9 11 12 11 12 14 16 17 17 16 18 15 17 18 20 20 20 19 18 17 17 16 16 15 15 15 14 13 12 13
6 7 8 11 11 11 12 14 16 16 17 17 16 15 19 19 19 19 20 19 18 18 17 16 16 15 15 15 14 13 12 12
6 6 7 9 10 11 12 13 16 16 17 16 16 17 16 16 19 18 20 19 18 18 17 16 16 15 15 14 13 13 13 12
5 4 5 6 8 11 12 13 16 17 18 18 17 16 16 16 19 19 19 18 18 18 18 16 16 15 14 14 14 13 12 12
3 2 3 3 7 8 13 14 16 18 18 18 18 18 15 15 17 19 18 16 19 19 18 16 15 15 14 14 13 13 13 13
0 1 0 2 6 8 11 14 16 17 17 18 17 16 13 13 15 14 15 16 16 17 17 17 16 15 14 14 13 13 13 13
-1 -1 -1 -0 2 7 10 10 11 12 13 14 15 14 13 13 13 13 13 14 16 16 15 15 15 15 14 14 13 13 13 12
-2 -2 -1 -1 0 4 8 10 11 12 13 13 13 13 13 13 13 13 13 13 14 14 16 16 15 15 14 14 13 12 12 12
-3 -2 -0 -2 -1 0 4 7 9 10 11 13 13 13 13 12 13 14 15 15 13 13 14 15 15 15 14 13 12 12 12 12
-3 -3 -1 -3 -3 -1 1 4 7 9 10 11 11 12 11 11 11 12 12 13 13 13 13 13 14 14 14 13 12 12 11 11
-4 -4 -3 -4 -3 -2 0 2 5 7 10 8 9 11 10 10 12 13 13 13 14 14 12 12 13 13 13 13 12 12 11 11
-4 -5 -5 -4 -3 -2 -1 1 4 6 8 7 7 9 9 10 10 12 13 12 12 12 12 13 13 13 12 12 12 11 11 11
-5 -5 -5 -5 -4 -3 -0 -2 0 2 4 5 6 7 7 8 9 10 10 11 11 12 12 12 13 13 12 11 11 11 10 10
-6 -6 -5 -5 -4 -4 -3 -2 -2 1 1 2 5 6 7 7 8 9 9 10 10 10 10 11 11 11 11 10 10 10 10 9
-6 -7 -6 -5 -4 -4 -4 -3 -3 -2 -1 -0 2 3 4 5 6 7 8 9 10 10 9 10 10 10 10 10 10 9 9 8

GFSFLT1_850_temp_138.txt.gz
Temp
14 13 13 12 13 13 13 13 13 15 16 14 14 14 14 15 15 19 20 19 18 16 14 16 16 14 12 12 14 13 12 14
13 12 12 11 12 12 13 13 13 13 15 15 14 15 14 14 15 18 18 19 18 18 14 15 17 16 16 15 14 12 13 12
12 11 9 9 10 11 12 12 13 13 14 15 15 14 15 14 14 17 18 19 19 18 17 16 17 16 16 15 13 12 12 12
10 8 7 7 8 11 12 13 13 13 14 15 14 13 13 14 14 14 17 18 19 18 17 17 17 16 16 16 13 12 12 12
5 4 5 4 5 6 10 12 12 13 13 15 15 14 13 14 14 14 17 18 18 19 17 16 17 16 16 16 14 12 12 12
2 1 1 2 3 3 6 11 12 13 13 13 15 14 14 16 14 13 13 17 18 18 18 17 17 17 16 16 15 13 12 13
1 -0 -0 -0 2 3 6 10 12 12 12 13 14 14 14 15 14 13 14 17 19 18 17 17 18 17 16 16 16 15 13 12
-1 -1 -1 -1 -0 1 3 9 11 12 12 13 14 14 14 14 15 17 14 15 15 19 18 18 18 18 17 16 15 15 14 12
-1 -2 -2 -2 -2 -1 2 7 11 12 13 13 14 14 15 15 16 20 14 14 18 20 19 18 18 17 17 16 15 15 14 14
-1 -2 -3 -2 -3 -2 0 7 9 13 13 13 14 14 15 15 15 15 14 13 14 17 18 17 17 17 16 16 15 14 14 14
-2 -3 -3 -2 -2 -2 3 6 8 10 13 14 14 15 14 15 15 14 14 14 13 13 13 14 15 15 15 15 15 14 14 14
-3 -3 -3 -3 -1 -2 0 2 5 10 12 13 13 13 14 14 14 13 13 14 13 13 13 13 13 13 15 16 15 14 14 14
-3 -4 -3 -4 -0 -3 -2 2 4 6 8 12 12 13 12 13 14 13 13 13 13 13 13 13 13 13 16 16 15 15 14 14
-4 -4 -3 -5 -1 -4 -3 -1 3 5 7 9 11 11 11 12 13 13 12 12 13 13 13 13 13 13 14 14 14 14 14 13
-4 -5 -4 -5 -3 -4 -4 -1 0 3 6 7 8 9 10 10 10 11 12 11 12 12 12 12 12 13 13 13 14 13 13 13
-4 -5 -5 -5 -4 -4 -4 -2 -1 1 4 6 6 8 8 8 10 10 10 11 11 12 12 12 12 13 13 13 12 12 12 12
-4 -5 -6 -5 -5 -4 -3 -3 -2 -1 1 2 4 7 9 8 9 9 10 10 10 12 12 12 12 12 12 13 13 12 12 12
-4 -5 -6 -6 -5 -5 -4 -4 -1 1 0 -0 1 7 7 6 8 9 10 10 10 10 11 11 11 12 12 11 11 11 11 10
-4 -5 -6 -6 -6 -6 -4 -4 -3 -4 -2 -1 0 1 2 4 5 6 8 9 9 10 10 10 10 10 10 10 10 10 10 10

GFSFLT1_850_temp_141.txt.gz
Temp
15 15 14 13 12 11 11 11 12 13 13 14 15 15 15 16 16 16 16 20 18 15 15 15 14 14 14 13 13 13 13 13
13 11 10 9 9 8 9 9 10 12 13 13 14 15 15 15 16 16 16 18 19 17 16 15 15 14 14 13 13 13 13 13
10 9 7 6 5 4 5 6 7 9 13 14 14 15 15 15 15 16 16 17 18 17 17 15 15 14 14 13 13 13 14 14
8 6 5 3 2 3 3 3 4 7 10 14 14 15 16 15 15 15 15 15 16 15 17 15 16 15 15 14 14 14 13 13
6 5 3 2 1 0 -0 1 2 5 10 11 14 15 16 16 14 14 15 14 15 15 15 15 16 17 15 16 16 14 13 13
4 3 2 1 -1 -1 -1 1 2 3 8 10 14 14 16 16 15 14 15 14 14 15 14 14 16 17 17 17 16 14 14 13
3 2 1 -0 -2 -2 -1 1 3 4 7 10 14 14 15 16 15 14 14 14 14 13 15 13 14 17 17 17 17 15 14 14
3 2 -0 -1 -2 -3 -1 1 4 6 9 11 13 13 14 16 15 14 15 14 14 14 13 13 14 16 17 16 16 16 15 14
2 1 -1 -2 -3 -3 -1 -1 2 4 8 12 13 13 14 15 15 13 14 14 14 13 13 13 14 14 16 15 15 15 14 14
2 -0 -2 -3 -3 -3 -2 -2 0 2 5 10 12 13 13 15 14 14 14 15 14 13 13 13 13 13 14 14 15 16 15 14
1 -1 -3 -3 -4 -3 -1 -2 -1 1 4 10 12 13 14 15 14 15 14 16 16 15 13 13 13 13 13 12 14 14 15 14
1 -1 -2 -4 -3 -3 -1 -2 -1 1 4 7 10 13 14 15 15 15 12 13 14 14 13 13 13 13 13 13 13 13 13 14
0 -2 -3 -4 -2 -2 -1 -2 -2 -1 2 6 8 10 11 15 14 14 14 14 14 14 14 13 13 13 13 13 13 14 13 13
-1 -3 -3 -3 -2 -3 -2 -2 -2 -1 0 5 7 9 11 12 13 14 14 13 14 14 13 13 13 13 12 13 13 13 13 15
-1 -3 -3 -3 -2 -4 -2 -2 -1 -1 0 3 6 8 8 9 11 11 12 13 12 13 13 13 13 13 13 13 13 13 13 13
-1 -3 -4 -4 -3 -3 -2 -2 -2 -2 1 2 4 5 7 8 10 10 10 11 11 12 12 12 12 12 12 13 13 13 13 13
-1 -3 -4 -4 -4 -4 -4 -4 -2 -2 -1 1 2 4 5 6 7 9 8 10 11 10 10 11 10 10 11 11 12 12 12 13
-1 -2 -3 -4 -5 -5 -5 -4 -3 -3 -1 1 2 2 2 3 5 8 7 8 9 10 10 11 10 10 11 11 10 11 11 12
-1 -2 -3 -4 -5 -5 -5 -5 -5 -4 -1 -1 1 3 -0 0 3 8 4 8 8 9 10 10 9 10 11 11 10 10 10 10

GFSFLT1_850_temp_144.txt.gz
Temp
13 11 10 11 11 12 12 13 12 8 7 11 12 13 15 15 15 15 15 17 19 17 15 15 15 15 15 15 14 14 14 14
11 9 8 7 7 7 7 7 8 8 7 6 10 10 13 15 15 14 15 15 17 19 16 15 15 15 15 14 14 14 14 14
9 7 6 5 4 3 5 5 2 5 4 4 7 9 11 13 15 15 14 15 16 17 18 16 15 15 15 14 15 14 14 14
7 6 5 4 3 2 2 1 3 2 2 3 6 10 10 12 14 15 16 14 16 16 18 16 16 15 15 15 15 14 14 13
6 5 4 3 2 1 0 -0 0 1 2 2 3 4 8 12 14 15 15 16 14 17 16 17 15 15 15 15 15 15 15 14
6 5 4 2 0 -0 1 0 -2 0 1 1 3 4 7 11 12 14 15 17 13 15 15 16 15 15 15 16 15 14 15 14
5 4 3 0 0 0 -1 -1 -1 -0 1 2 2 3 5 9 12 14 15 16 14 13 14 15 14 15 14 16 17 17 15 14
4 3 2 -0 -2 -1 -1 -0 -1 -1 -0 1 2 4 7 10 12 14 14 15 15 16 14 14 14 15 14 15 16 17 16 15
4 3 1 -1 -2 -2 -1 -1 -1 -1 1 2 3 7 9 11 13 13 15 14 14 16 12 13 14 14 14 14 15 16 16 15
4 2 0 -1 -3 -3 -1 -2 -1 -2 -1 1 4 8 11 12 13 13 13 13 13 13 14 12 14 14 14 13 13 14 16 15
3 1 -0 -2 -3 -3 -1 -2 -2 -3 -2 1 3 5 11 11 12 13 13 13 12 14 12 11 10 13 14 13 13 13 14 15
2 0 -1 -1 -3 -2 -2 -1 -2 -2 -1 1 2 5 7 10 11 12 11 11 11 12 12 11 10 12 13 13 13 13 13 14
2 -0 -1 -2 -2 -2 -2 -2 -2 -2 -2 -1 1 3 5 7 9 13 13 12 13 12 12 13 12 12 12 13 12 13 12 12
1 -0 -1 -2 -3 -2 -2 -2 -2 -1 -2 -1 1 2 4 6 7 8 10 11 11 12 12 13 14 13 13 13 12 12 13 12
1 -0 -2 -2 -3 -3 -2 -3 -2 -1 -1 -1 -0 1 3 6 8 8 9 10 11 12 11 12 11 14 14 12 12 12 12 13
1 -0 -1 -2 -3 -3 -3 -2 -2 -2 -2 -1 -1 1 3 6 7 7 8 10 10 10 10 10 9 12 13 12 12 12 12 12
1 -0 -1 -2 -3 -4 -4 -4 -2 -2 -3 -3 -2 -1 1 4 5 6 7 9 10 10 11 11 11 11 12 12 12 12 12 12
0 -0 -1 -2 -3 -4 -4 -4 -3 -2 -2 -3 -3 -1 -0 1 3 4 5 6 8 10 10 10 10 11 11 11 12 12 12 12
0 -1 -1 -2 -3 -4 -4 -4 -4 -3 -3 -4 -4 -3 -2 -0 2 2 2 3 6 8 8 8 9 10 10 11 11 11 10 11